Regional Weather Roundup
Issued by NWS

Home | Current Version | Previous Version | Graphics & Text | Print | Product List | Glossary On
Versions: 1 2 3 4 5 6 7 8 9 10 11 12 13 14 15 16 17 18 19 20 21 22 23 24 25 26 27 28 29 30 31 32 33 34 35 36 37 38 39 40 41 42 43 44 45 46 47 48 49 50
000
ASUS43 KLSX 230307
RWRMO

WEATHER SUMMARY FOR MISSOURI
NATIONAL WEATHER SERVICE SPRINGFIELD MO
1000 PM CDT FRI SEP 22 2017

NOTE: "FAIR" INDICATES FEW OR NO CLOUDS BELOW 12,000 FEET WITH NO
       SIGNIFICANT WEATHER AND/OR OBSTRUCTIONS TO VISIBILITY.
       CURRENT SKY AND/OR WEATHER CONDITIONS ARE NOT AVAILABLE FOR
       CHILLICOTHE AND FARMINGTON.

MOZ001>031-035>038-043-044-053-054-230400-
...NORTHERN AND WESTERN MISSOURI...

CITY           SKY/WX    TMP DP  RH WIND       PRES   REMARKS
KANSAS CTY INT PTCLDY    77  69  76 S8        29.95R
KANSAS C DTWN  CLEAR     83  69  62 SE9       29.93S
LEE`S SUMMIT   CLEAR     77  70  79 SE7       29.96S
ST JOSEPH      CLEAR     78  70  76 S9        29.93R
CHILLICOTHE      N/A     75  70  84 CALM      29.97R
KIRKSVILLE     CLEAR     73  65  75 SE5       30.00R

$$
MOZ066>068-077>081-088>096-101>105-230400-
...SOUTHWEST MISSOURI...

CITY           SKY/WX    TMP DP  RH WIND       PRES   REMARKS
SPRINGFIELD    CLEAR     73  67  81 SE7       30.00R
JOPLIN         CLEAR     75  69  81 SE5       29.97S
BRANSON        CLEAR     77  64  65 CALM      30.02S

$$
MOZ032>034-039>042-045>050-055>058-069>072-230400-
...CENTRAL MISSOURI...

CITY           SKY/WX    TMP DP  RH WIND       PRES   REMARKS
COLUMBIA       CLEAR     79  68  69 E6        30.00R
JEFFERSON CITY CLEAR     74  69  85 CALM      29.98R
ROLLA          CLEAR     77  64  64 SE9       30.02S
SEDALIA        CLEAR     76  70  82 SE3       29.99S
WHITEMAN AFB   CLEAR     74  74 100 SE6       29.96S
WARRENSBURG    CLEAR     73  68  83 SE3       29.96S
OSAGE BEACH    CLEAR     73  68  84 SE3       30.00S

$$
MOZ051-052-059>065-230400-
...EAST CENTRAL MISSOURI...

CITY           SKY/WX    TMP DP  RH WIND       PRES   REMARKS
ST LOUIS INTL  CLEAR     82  63  52 SE5       30.01R
SPIRIT OF STL  CLEAR     72  68  87 CALM      29.99R
ST CHARLES     CLEAR     76  65  68 E5        29.99R

$$
MOZ072>076-082>087-097>100-106>115-230400-
...SOUTH CENTRAL AND SOUTHEAST MISSOURI...

CITY           SKY/WX    TMP DP  RH WIND       PRES   REMARKS
CAPE GIRARDEAU CLEAR     74  69  85 E5        30.00R
FARMINGTON     CLEAR     72  64  76 CALM      30.04R
POPLAR BLUFF   CLEAR     72  69  90 N3        29.99S
WEST PLAINS    CLEAR     75  65  70 CALM      30.04S

$$



USA.gov is the U.S. government's official web portal to all federal, state and local government web resources and services.